User: anonymous   Login
Location: Camp at the Woods
(43.2055°N, 93.0905°W)
Time: 11:35:39
(UTC+00:00)
Language:

USA 267 - Orbit

View from above orbital plane
View from above orbital plane
View from above satellite
View from above satellite

Ground track
Ground track

The orbit data is extracted from the following two-line orbital elements,

1 41334U 16010A   24110.82987023 0.00000000  00000-0  00000-0 0    03
2 41334 123.0001 279.5695 0002151 202.7655 157.2344 13.41449014    00
Epoch (UTC): 19 April 2024 19:55:00
Eccentricity: 0.0002151
inclination: 123.0001°
perigee height: 1102 km
apogee height: 1105 km
right ascension of ascending node: 279.5695°
argument of perigee: 202.7655°
revolutions per day: 13.41449014
mean anomaly at epoch: 157.2344°
orbit number at epoch: 0

The dashed part of the orbit path shows where the satellite is in the earth's shadow,  

DLR